Lid_Strength_Index
7 8 10 10 7 6 5 4 4 4 3 4 5 3 2 1 -0 -0 -0 -1 -1 -1 -1 -1 -1 -1 -1 -1 -1 -1 -1 -1
8 8 7 7 6 6 6 5 4 4 5 3 1 2 1 -0 -0 -0 -0 -1 -1 -1 -1 -1 -1 -1 -1 -1 -1 -1 -1 -1
8 8 6 6 5 5 5 5 5 5 5 4 2 1 0 0 -0 0 -0 -1 -1 -1 -1 -1 -1 -1 -1 -1 -1 -1 -1 -1
10 8 6 6 5 5 5 4 4 5 5 4 1 1 1 0 -0 -0 -0 -1 -1 -1 -1 -1 -1 -1 -1 -1 -1 -1 -1 -1
10 10 8 6 4 5 5 5 5 4 6 3 2 1 0 0 -0 -0 -0 -0 -1 -1 -1 -1 -1 -1 -1 -1 -1 -1 -1 -1
9 10 10 7 5 5 5 5 4 5 6 5 3 2 0 0 0 -0 -0 -0 -0 -1 -1 -1 -1 -1 -1 -1 -1 -1 -1 -1
8 9 8 5 6 5 4 5 5 4 4 3 4 2 1 1 1 1 0 -0 -0 -0 -1 -1 -1 -1 -1 -1 -1 -1 -1 -1
5 5 6 5 6 5 6 7 5 4 3 3 3 3 2 2 2 1 1 0 -0 -0 -1 -1 -1 -1 -1 -1 -1 -1 -1 -1
5 5 5 5 6 5 6 7 5 4 3 2 2 2 2 2 2 1 1 0 -0 -0 -1 -1 -0 -1 -1 -1 -1 -1 -2 -2
5 5 5 6 5 6 5 5 4 4 3 3 2 2 2 2 2 2 1 0 -0 -0 -1 -1 -1 -0 -1 -0 -1 -1 -1 -2
4 5 5 5 6 6 6 4 3 3 4 3 3 2 1 1 1 1 2 1 0 -0 -0 -0 -0 -0 -0 -0 -0 -1 -1 -2
5 5 5 6 6 5 5 4 4 3 3 3 2 2 2 2 1 2 1 0 -0 -0 -0 -0 -0 -0 -0 -1 -1 -1 -1 -1
6 5 6 5 7 7 4 4 4 4 3 3 2 2 2 1 1 0 0 -0 0 -0 -0 -0 -0 -0 -0 -0 -1 -0 -0 -2
6 5 5 6 9 5 4 4 5 4 4 3 2 2 1 1 0 -0 -0 -0 -0 -0 -0 -0 -0 -0 -0 -0 -0 -1 -0 -1
7 5 6 7 8 5 4 4 4 4 4 3 3 2 1 1 0 -0 -1 -0 0 -0 -0 -0 -0 -0 -0 -1 -0 -0 -1 -1
8 6 6 7 7 5 4 4 4 4 3 3 3 2 1 1 0 -0 -0 -1 -1 -0 -0 -0 -0 0 0 -0 -0 -0 -0 -0
7 6 7 7 7 6 4 4 4 4 3 3 3 2 1 1 0 0 -0 -0 -1 -0 -0 0 1 1 1 1 1 0 -0 -1
7 6 6 7 7 6 5 5 4 4 4 3 3 2 2 1 1 0 -0 -1 -1 -0 -1 -0 0 1 1 1 0 0 -0 -0
8 7 6 7 8 7 5 4 4 3 3 3 3 3 2 2 1 0 0 -0 -0 -1 -1 -1 -1 0 0 0 0 1 0 0
8 9 11 7 12 8 6 6 5 4 4 3 3 2 2 2 1 1 1 -0 -1 -1 -1 -1 -1 0 1 2 2 1 1 0